#timestamp,LO_Frequency,Hit,StdDev 
1568080815.1,286047000.6,N
1568080835.4,286046998.1,N
1568080855.2,286047001.0,N
1568080875.1,286046998.7,N
1568080876.0,286046998.7,N
1568080895.8,286046998.6,N
1568080915.6,286046998.5,N
1568080935.5,286047001.0,N
1568080955.3,286046998.3,N
1568080975.2,286047001.0,N
1568080995.6,286046999.7,N
1568081015.4,286047000.2,N
1568081035.2,286046998.4,N
1568081055.1,286046999.5,N
1568081056.0,286046999.5,N
1568081075.8,286046998.7,N
1568081095.7,286046998.6,N
1568081115.5,286046998.1,N
1568081135.3,286046998.6,N
1568081155.2,286047000.3,N
1568081175.0,286046998.2,N
1568081175.9,286046998.2,N
1568081195.8,286046998.1,N
1568081215.6,286047001.0,N
1568081235.4,286047000.7,N
1568081255.3,286046999.9,N
1568081275.1,286047001.2,N
1568081295.9,286046998.2,N
1568081315.7,286046998.2,N
1568081335.5,286046998.2,N
1568081355.4,286046998.5,N
1568081375.2,286047001.0,N
1568081395.0,286047002.3,N
1568081395.9,286047002.3,N
1568081415.8,286046999.8,N
1568081435.6,286047001.2,N
1568081455.5,286047000.9,N
1568081475.3,286047000.3,N
1568081495.1,286047002.6,N
1568081515.9,286047002.5,N
1568081535.7,286047002.3,N
1568081555.6,286047002.4,N
1568081575.4,286047002.7,N
1568081595.3,286047000.0,N
1568081615.2,286047000.4,N
1568081635.9,286047002.8,N
1568081655.7,286046998.1,N
1568081675.6,286047001.1,N
1568081695.4,286047001.0,N
1568081715.2,286046998.6,N
1568081735.1,286047000.8,N
1568081736.0,286047000.8,N
1568081755.8,286046999.8,N
1568081775.7,286047001.0,N
1568081795.5,286047000.1,N
1568081815.3,286047002.1,N
1568081835.2,286047002.8,N
1568081855.0,286047001.8,N
1568081855.9,286047001.8,N
1568081875.8,286047002.0,N
1568081895.6,286047001.9,N
1568081915.4,286046999.7,N
1568081935.3,286047002.7,N
1568081955.1,286047000.2,N
1568081975.9,286046999.9,N
1568081995.7,286047001.0,N
1568082015.5,286046998.8,N
1568082035.4,286047000.0,N
1568082055.2,286046999.8,N
1568082075.0,286047002.8,N
1568082075.9,286047002.8,N
1568082095.8,286047002.3,N
1568082115.6,286047002.5,N
1568082135.5,286047001.5,N
1568082155.3,286047001.4,N
1568082175.1,286047001.8,N
1568082195.9,286047002.2,N
1568082215.7,286047002.4,N
1568082235.6,286047002.1,N
1568082255.4,286047001.3,N
1568082275.2,286047001.7,N
1568082295.1,286047002.9,N
1568082296.0,286047002.9,N
1568082315.8,286047004.4,Y
1568082335.7,286047002.7,P
1568082355.5,286047002.6,P
1568082375.3,286047002.5,P
1568082395.2,286047000.9,N
1568082415.0,286047000.9,N
1568082415.9,286047000.9,N
1568082435.7,286047001.2,N
1568082455.6,286047001.1,N
1568082475.4,286046998.5,N
1568082495.3,286047000.0,N
1568082515.1,286047000.9,N
1568082516.0,286047000.9,N
1568082535.8,286047000.7,N
1568082555.7,286047000.6,N
1568082575.5,286047000.4,N
1568082595.4,286047000.9,N
1568082615.2,286046998.1,N
1568082635.0,286047000.4,N
1568082635.9,286047000.4,N
1568082655.8,286047000.3,N
1568082675.6,286047000.5,N
1568082695.4,286047002.8,N
1568082715.3,286047000.8,N
1568082735.1,286047000.4,N
1568082755.9,286047001.0,N
1568082775.7,286047000.8,N
1568082795.5,286047001.0,N
1568082815.4,286047000.8,N
1568082835.2,286047001.1,N
1568082855.1,286047000.2,N
1568082856.0,286047000.2,N
1568082875.8,286047000.5,N
1568082895.6,286047000.1,N
1568082915.5,286047002.4,Y
1568082935.3,286047000.4,P
1568082955.2,286047002.5,P
1568082975.9,286047001.4,N
1568082995.7,286047001.7,N
1568083015.6,286047001.8,N
1568083035.4,286047002.8,Y
1568083055.2,286046998.2,P
1568083075.1,286047001.2,N
1568083076.0,286047001.2,N
1568083095.8,286047000.5,N
1568083115.7,286047000.1,N
1568083135.5,286046999.7,N
1568083155.3,286047000.6,N
1568083175.2,286047000.1,N
1568083195.0,286047000.1,N
1568083195.9,286047000.1,N
1568083215.8,286047000.4,N
1568083235.6,286047000.3,N
1568083255.4,286047002.1,N
1568083275.3,286047002.3,N
1568083295.1,286046999.8,N
1568083315.8,286047002.6,N
1568083335.7,286047001.9,N
1568083355.5,286047002.1,N
1568083375.4,286047002.6,N
1568083395.2,286047001.8,N
1568083415.0,286047002.5,N
1568083415.9,286047002.5,N
1568083435.8,286047001.7,N
1568083455.6,286047001.8,N
1568083475.5,286047002.1,N
1568083495.3,286047001.6,N
1568083515.1,286047000.2,N
1568083535.9,286047000.6,N
1568083555.7,286047000.4,N
1568083575.5,286047001.1,N
1568083595.4,286046998.3,N
1568083615.2,286046998.9,N
1568083635.1,286046999.1,N
1568083636.0,286046999.1,N
1568083655.8,286046999.1,N
1568083675.6,286046999.4,N
1568083695.5,286046999.2,N
1568083715.3,286046996.6,N
1568083735.2,286046998.7,N
1568083755.9,286046998.4,N
1568083775.7,286046999.2,N
1568083795.6,286046999.2,N
1568083815.4,286046996.5,N
1568083835.2,286046996.6,N
1568083855.1,286046996.6,N
1568083856.0,286046996.6,N
1568083875.8,286046999.3,N
1568083895.7,286046996.9,N
1568083915.5,286046996.8,N
1568083935.3,286046997.2,N
1568083955.2,286046997.7,N
1568083975.0,286046999.6,N
1568083975.9,286046999.6,N
1568083995.8,286046996.9,N
1568084015.6,286046996.9,N
1568084035.4,286046996.5,N
1568084055.3,286046997.2,N
1568084075.1,286046997.3,N
1568084095.9,286046997.0,N
1568084115.7,286046997.1,N
1568084135.5,286046997.6,N
1568084155.4,286046996.8,N
1568084175.2,286046997.9,N
1568084195.5,286046997.4,N
1568084215.3,286046997.7,N
1568084235.2,286046997.5,N
1568084255.9,286046996.8,Y
1568084275.7,286046998.1,P
1568084295.6,286046998.2,P
1568084315.4,286047000.2,N
1568084335.3,286047001.0,N
1568084355.1,286047001.0,N
1568084356.0,286047001.0,N
1568084375.8,286047000.0,N
1568084395.7,286047000.6,N
